When you browse on this site, cookies collect data to enhance your experience and personalize the content and advertising you see.
Visit our Privacy Policy to learn more. By continuing to use the site, you agree to this use of cookies and data.
  • In Lithuania
  • List of Countries
  • For 7 days
  • Water Temperature
  • Weather Map
  • Weather Widgets
  • user-avatar
    Login

    Hourly Weather Ali Bayramli

    Today, 29 May, Friday

    Time Temperature Precipitation Wind Pressure Humidity
    00:00 +22°C° 0 mm 1 mps 757 mmHg 65%
    01:00 +21°C° 0 mm 1 mps 757 mmHg 66%
    02:00 +21°C° 0 mm 1 mps 756 mmHg 68%
    03:00 +20°C° 0 mm 1 mps 756 mmHg 69%
    04:00 +21°C° 0 mm 1 mps 756 mmHg 66%
    05:00 +22°C° 0 mm 1 mps 756 mmHg 63%
    06:00 +23°C° 0 mm 1 mps 756 mmHg 60%
    07:00 +25°C° 0 mm 1 mps 756 mmHg 53%
    08:00 +27°C° 0 mm 2 mps 756 mmHg 46%
    09:00 +29°C° 0 mm 2 mps 756 mmHg 38%
    10:00 +30°C° 0 mm 3 mps 755 mmHg 35%
    11:00 +33°C° 0 mm 3 mps 755 mmHg 32%
    12:00 +35°C° 0 mm 4 mps 754 mmHg 29%
    13:00 +35°C° 0 mm 5 mps 754 mmHg 29%
    14:00 +35°C° 0 mm 5 mps 753 mmHg 29%
    15:00 +35°C° 0 mm 6 mps 753 mmHg 29%
    16:00 +33°C° 0.1 mm 6 mps 753 mmHg 35%
    17:00 +30°C° 0.1 mm 5 mps 752 mmHg 41%
    18:00 +28°C° 0.1 mm 5 mps 752 mmHg 47%
    19:00 +27°C° 0 mm 4 mps 752 mmHg 49%
    20:00 +27°C° 0 mm 2 mps 752 mmHg 52%
    21:00 +26°C° 0 mm 1 mps 752 mmHg 54%
    22:00 +25°C° 0 mm 1 mps 752 mmHg 55%
    23:00 +25°C° 0 mm 1 mps 752 mmHg 56%

    Tomorrow, 30 May, Saturday

    Time Temperature Precipitation Wind Pressure Humidity
    00:00 +25°C° 0 mm 1 mps 752 mmHg 56%
    01:00 +24°C° 0 mm 1 mps 752 mmHg 59%
    02:00 +24°C° 0 mm 2 mps 752 mmHg 61%
    03:00 +22°C° 0 mm 3 mps 752 mmHg 63%
    04:00 +24°C° 0 mm 3 mps 752 mmHg 62%
    05:00 +24°C° 0 mm 3 mps 752 mmHg 61%
    06:00 +25°C° 0 mm 3 mps 753 mmHg 60%
    07:00 +27°C° 0 mm 3 mps 753 mmHg 53%
    08:00 +29°C° 0 mm 4 mps 754 mmHg 46%
    09:00 +32°C° 0 mm 5 mps 754 mmHg 40%
    10:00 +33°C° 0 mm 7 mps 755 mmHg 38%
    11:00 +34°C° 0 mm 8 mps 755 mmHg 37%
    12:00 +36°C° 0 mm 10 mps 756 mmHg 35%
    13:00 +36°C° 0 mm 11 mps 756 mmHg 36%
    14:00 +34°C° 0 mm 12 mps 756 mmHg 37%
    15:00 +33°C° 0 mm 13 mps 756 mmHg 37%
    16:00 +32°C° 0 mm 12 mps 756 mmHg 38%
    17:00 +31°C° 0 mm 11 mps 756 mmHg 39%
    18:00 +29°C° 0 mm 10 mps 757 mmHg 39%
    19:00 +28°C° 0 mm 9 mps 757 mmHg 42%
    20:00 +26°C° 0 mm 8 mps 757 mmHg 46%
    21:00 +24°C° 0 mm 7 mps 758 mmHg 49%
    22:00 +24°C° 0 mm 7 mps 758 mmHg 51%
    23:00 +23°C° 0 mm 6 mps 758 mmHg 52%

    Day after tomorrow, 31 May, Sunday

    Time Temperature Precipitation Wind Pressure Humidity
    00:00 +23°C° 0 mm 5 mps 758 mmHg 54%
    01:00 +22°C° 0 mm 4 mps 758 mmHg 57%
    02:00 +21°C° 0 mm 4 mps 758 mmHg 60%
    03:00 +21°C° 0 mm 3 mps 758 mmHg 63%
    04:00 +21°C° 0 mm 3 mps 758 mmHg 63%
    05:00 +21°C° 0 mm 3 mps 759 mmHg 62%
    06:00 +21°C° 0 mm 3 mps 759 mmHg 62%
    07:00 +24°C° 0 mm 3 mps 759 mmHg 57%
    08:00 +26°C° 0 mm 3 mps 759 mmHg 51%
    09:00 +27°C° 0 mm 3 mps 759 mmHg 45%
    10:00 +29°C° 0 mm 3 mps 759 mmHg 41%
    11:00 +30°C° 0 mm 2 mps 759 mmHg 37%
    12:00 +32°C° 0 mm 1 mps 759 mmHg 33%
    13:00 +33°C° 0 mm 3 mps 758 mmHg 33%
    14:00 +33°C° 0 mm 4 mps 758 mmHg 32%
    15:00 +33°C° 0 mm 6 mps 758 mmHg 32%
    16:00 +32°C° 0 mm 6 mps 758 mmHg 35%
    17:00 +29°C° 0 mm 7 mps 758 mmHg 39%
    18:00 +28°C° 0 mm 7 mps 758 mmHg 42%
    19:00 +27°C° 0 mm 6 mps 758 mmHg 44%
    20:00 +26°C° 0 mm 6 mps 758 mmHg 47%
    21:00 +25°C° 0 mm 5 mps 759 mmHg 49%
    22:00 +23°C° 0 mm 4 mps 759 mmHg 52%
    23:00 +22°C° 0 mm 4 mps 759 mmHg 55%

    1 June, Monday

    Time Temperature Precipitation Wind Pressure Humidity
    00:00 +21°C° 0 mm 3 mps 758 mmHg 57%
    01:00 +21°C° 0 mm 3 mps 758 mmHg 59%
    02:00 +20°C° 0 mm 2 mps 758 mmHg 61%
    03:00 +20°C° 0 mm 2 mps 758 mmHg 63%
    04:00 +20°C° 0 mm 2 mps 758 mmHg 61%
    05:00 +21°C° 0 mm 2 mps 758 mmHg 60%
    06:00 +21°C° 0 mm 2 mps 758 mmHg 59%
    07:00 +24°C° 0 mm 2 mps 758 mmHg 54%
    08:00 +25°C° 0 mm 1 mps 757 mmHg 49%
    09:00 +27°C° 0 mm 1 mps 757 mmHg 44%
    10:00 +28°C° 0 mm 2 mps 757 mmHg 40%
    11:00 +30°C° 0 mm 2 mps 757 mmHg 36%
    12:00 +31°C° 0 mm 3 mps 756 mmHg 32%
    13:00 +32°C° 0 mm 4 mps 755 mmHg 30%
    14:00 +33°C° 0 mm 5 mps 755 mmHg 28%
    15:00 +33°C° 0 mm 6 mps 754 mmHg 26%
    16:00 +30°C° 0 mm 6 mps 754 mmHg 29%
    17:00 +29°C° 0 mm 6 mps 754 mmHg 32%
    18:00 +28°C° 0 mm 5 mps 753 mmHg 35%
    19:00 +27°C° 0 mm 5 mps 753 mmHg 40%
    20:00 +25°C° 0 mm 4 mps 753 mmHg 46%
    21:00 +22°C° 0 mm 4 mps 753 mmHg 51%
    22:00 +22°C° 0 mm 3 mps 753 mmHg 54%
    23:00 +21°C° 0 mm 2 mps 753 mmHg 57%

    2 June, Tuesday

    Time Temperature Precipitation Wind Pressure Humidity
    00:00 +22°C° 0 mm 1 mps 752 mmHg 60%
    01:00 +21°C° 0 mm 1 mps 752 mmHg 62%
    02:00 +21°C° 0 mm 1 mps 752 mmHg 64%
    03:00 +21°C° 0 mm 1 mps 752 mmHg 66%
    04:00 +21°C° 0 mm 1 mps 752 mmHg 65%
    05:00 +22°C° 0 mm 1 mps 752 mmHg 64%
    06:00 +23°C° 0 mm 1 mps 752 mmHg 63%
    07:00 +25°C° 0 mm 1 mps 752 mmHg 57%
    08:00 +27°C° 0 mm 1 mps 752 mmHg 50%
    09:00 +28°C° 0 mm 1 mps 752 mmHg 44%
    10:00 +30°C° 0 mm 1 mps 752 mmHg 39%
    11:00 +32°C° 0 mm 2 mps 752 mmHg 35%
    12:00 +35°C° 0 mm 2 mps 752 mmHg 31%
    13:00 +34°C° 0 mm 4 mps 752 mmHg 33%
    14:00 +34°C° 0 mm 6 mps 751 mmHg 35%
    15:00 +33°C° 0 mm 8 mps 751 mmHg 37%
    16:00 +32°C° 0 mm 8 mps 751 mmHg 40%
    17:00 +29°C° 0 mm 8 mps 751 mmHg 42%
    18:00 +28°C° 0 mm 8 mps 751 mmHg 44%
    19:00 +27°C° 0 mm 8 mps 752 mmHg 45%
    20:00 +26°C° 0 mm 9 mps 753 mmHg 45%
    21:00 +24°C° 0 mm 9 mps 753 mmHg 46%
    22:00 +24°C° 0 mm 8 mps 753 mmHg 45%
    23:00 +24°C° 0 mm 6 mps 754 mmHg 44%

    3 June, Wednesday

    Time Temperature Precipitation Wind Pressure Humidity
    00:00 +25°C° 0 mm 5 mps 754 mmHg 44%
    01:00 +23°C° 0 mm 5 mps 754 mmHg 47%
    02:00 +23°C° 0 mm 5 mps 754 mmHg 51%
    03:00 +22°C° 0 mm 5 mps 755 mmHg 54%
    04:00 +22°C° 0 mm 4 mps 755 mmHg 54%
    05:00 +23°C° 0 mm 4 mps 756 mmHg 53%
    06:00 +24°C° 0 mm 3 mps 756 mmHg 53%
    07:00 +26°C° 0 mm 3 mps 756 mmHg 48%
    08:00 +27°C° 0 mm 2 mps 756 mmHg 43%
    09:00 +29°C° 0 mm 2 mps 756 mmHg 38%
    10:00 +30°C° 0 mm 2 mps 756 mmHg 35%
    11:00 +31°C° 0 mm 2 mps 756 mmHg 32%
    12:00 +34°C° 0 mm 2 mps 756 mmHg 29%
    13:00 +34°C° 0 mm 4 mps 755 mmHg 29%
    14:00 +34°C° 0 mm 5 mps 755 mmHg 29%
    15:00 +34°C° 0 mm 6 mps 755 mmHg 29%
    16:00 +33°C° 0 mm 6 mps 755 mmHg 32%
    17:00 +30°C° 0 mm 6 mps 755 mmHg 34%
    18:00 +29°C° 0 mm 6 mps 755 mmHg 36%
    19:00 +28°C° 0 mm 5 mps 756 mmHg 41%
    20:00 +26°C° 0 mm 4 mps 756 mmHg 45%
    21:00 +25°C° 0 mm 3 mps 757 mmHg 50%
    22:00 +25°C° 0 mm 3 mps 757 mmHg 52%
    23:00 +24°C° 0 mm 2 mps 757 mmHg 54%
    Show more